Location: Boiro
(42.6475°N, 8.8834°W)
Time: 08:54:16
(UTC+01:00)

SR - Pass Details

Date: 08 December 2021
Orbit: 583 x 872 km, 66.7° (Epoch: 16 January)

Event Time Altitude Azimuth Distance (km) Brightness Sun altitude
Rises 07:35:32 0° 340° (NNW) 2,822 - -13.8°
Exits shadow 07:36:44 - 346° (NNW) 2,404 ? -13.6°
Reaches altitude 10° 07:38:12 10° 357° (N) 1,936 ? -13.3°
Maximum altitude 07:41:32 21° 47° (NE) 1,371 ? -12.7°
Drops below altitude 10° 07:45:00 10° 98° (E) 2,010 ? -12.1°
Sets 07:47:48 0° 114° (ESE) 2,964 ? -11.6°
